Wetbulb
29.32 29.77 30.25 30.45 30.79 30.79 30.52 30.39 30.03 29.97 29.92 29.24 28.81 28.72 28.68 28.64 28.62 28.77 28.88 28.92 29.17 29.11 28.93 28.75 28.29 27.18 26.00 24.96 24.98 25.22 25.42 25.48 25.57 26.03 26.39 26.12 26.19 26.28 26.37 26.49 26.64 26.84 27.11 27.38 27.80 28.28 28.55 28.51 29.49 30.86 31.71 31.47 31.22 31.12 31.40 31.74 31.49 31.85 32.34 32.64 33.53 33.64 33.14 32.78 33.20 33.75 34.07 34.31 35.41
28.44 28.79 29.53 30.46 30.48 30.55 30.35 29.95 29.88 29.85 29.67 29.51 29.15 28.51 28.26 28.80 28.65 28.26 27.83 27.62 28.51 28.58 28.55 28.48 26.61 25.48 24.98 24.77 24.86 24.95 24.97 25.03 25.06 25.41 25.68 25.68 25.59 25.68 25.92 26.01 26.28 26.54 26.93 27.29 27.44 28.34 28.96 28.33 29.07 30.42 31.43 31.62 31.03 30.87 30.94 31.23 31.19 31.56 31.76 31.40 32.76 34.10 34.66 33.85 33.96 34.23 34.71 35.38 35.59
28.24 28.33 28.68 29.08 29.17 29.51 29.73 29.31 28.25 27.27 26.75 27.71 28.16 28.25 28.35 28.69 28.76 28.56 28.05 27.52 26.83 27.00 27.59 27.78 25.77 24.77 24.44 24.50 24.59 24.71 24.77 24.68 24.59 24.70 24.97 25.21 25.23 25.29 25.50 25.74 25.95 26.21 26.54 27.00 27.10 27.80 28.18 27.93 29.12 30.30 31.16 31.55 30.35 30.24 30.65 31.09 31.35 31.53 31.74 31.51 33.41 34.84 35.80 35.69 35.97 36.06 36.19 36.26 35.22
27.75 27.92 28.10 27.99 27.66 27.66 28.01 28.62 26.93 26.28 26.31 27.45 26.75 27.08 27.72 28.43 28.46 28.11 27.32 25.77 25.76 26.23 26.46 25.85 25.20 24.54 24.24 24.26 24.44 24.50 24.50 24.95 24.62 24.41 24.35 24.79 24.94 25.03 25.20 25.47 25.74 25.82 26.19 26.64 26.68 26.92 27.17 27.27 29.31 30.55 30.90 30.45 29.48 29.85 30.98 31.98 31.12 31.40 31.95 32.38 33.77 35.02 35.92 36.21 36.21 35.87 35.63 35.31 34.68
27.21 27.57 27.92 27.83 26.94 26.68 26.81 26.72 26.18 26.04 26.31 27.11 27.62 27.79 27.80 27.80 27.64 27.20 26.67 26.59 26.47 26.05 25.31 24.13 24.93 24.60 24.00 24.08 24.14 24.14 24.26 24.53 25.30 24.85 24.14 24.52 24.76 25.03 25.11 25.32 25.65 25.68 25.68 26.01 26.29 27.10 27.61 26.83 29.62 30.75 31.22 31.83 31.80 31.80 31.70 31.72 31.03 30.96 31.56 32.63 33.47 34.96 36.05 35.66 35.39 35.20 34.79 34.21 33.89
26.83 26.56 26.56 26.90 26.14 26.03 26.18 25.91 25.31 25.31 25.83 26.45 26.38 26.38 26.67 27.69 27.43 27.02 26.70 26.28 25.05 24.22 23.89 24.35 24.68 24.44 24.17 23.73 23.96 23.96 24.08 24.06 24.24 24.06 24.00 24.35 24.85 25.06 25.14 25.41 25.58 25.68 25.74 25.92 25.95 26.65 27.02 26.38 29.78 31.37 32.00 32.35 31.89 31.75 31.67 31.51 30.91 30.75 31.02 31.67 33.04 34.23 34.73 34.04 34.04 34.13 33.81 33.11 32.39
26.83 26.38 26.03 25.83 25.67 25.91 25.86 24.96 24.78 24.87 25.16 25.84 25.24 24.95 24.96 25.11 24.75 24.15 23.97 24.40 24.48 24.60 24.98 25.78 24.89 24.26 23.82 23.46 23.73 23.82 24.00 24.06 23.82 23.79 23.88 24.17 24.68 24.97 25.11 25.38 25.65 25.82 25.91 26.01 25.93 25.85 25.86 25.95 29.34 31.02 31.58 31.68 31.90 32.10 31.64 29.99 30.05 30.34 30.51 30.91 32.36 32.96 32.75 32.27 32.68 32.87 32.74 31.76 31.20
26.30 25.94 25.67 25.49 25.74 25.58 25.31 25.14 25.31 25.67 26.05 26.55 25.40 24.35 23.64 23.46 23.37 23.43 23.61 24.09 24.42 24.80 25.16 24.98 23.64 23.17 22.99 22.99 23.08 23.28 23.55 23.52 23.64 23.70 23.79 24.06 24.59 24.97 25.23 25.47 25.65 25.85 26.00 26.10 25.87 25.74 26.04 27.57 29.62 30.52 30.94 31.39 31.69 31.79 31.17 29.34 29.53 30.26 30.81 30.68 31.59 31.85 31.69 31.28 31.46 31.65 31.58 31.20 31.62
26.00 25.65 25.47 25.65 25.91 25.67 25.31 25.40 25.69 25.96 25.96 25.43 24.50 23.91 23.64 23.55 23.46 23.55 23.88 24.36 24.71 24.71 24.36 23.71 22.84 22.72 22.81 22.66 22.90 22.99 23.26 23.37 23.34 23.55 23.88 24.24 24.68 24.97 25.32 25.57 25.68 25.91 26.09 25.92 25.87 26.22 27.08 29.02 30.93 31.61 31.75 31.73 31.77 31.75 31.61 31.31 31.26 31.67 31.90 31.74 31.67 31.26 30.80 30.38 30.58 30.92 31.31 31.92 32.96
26.04 25.59 25.47 25.65 25.56 25.47 25.47 25.49 25.85 25.69 25.31 24.62 24.09 23.97 24.41 25.12 24.32 24.00 24.09 24.57 24.36 24.09 23.64 23.08 22.54 22.66 22.93 23.11 22.99 23.08 23.29 23.35 23.28 23.55 24.05 24.71 25.30 25.32 25.39 25.60 25.74 25.86 25.86 25.92 26.47 27.62 28.96 30.51 30.94 31.05 31.17 31.83 31.67 30.74 30.33 31.83 32.29 31.93 31.68 32.32 31.62 31.04 30.51 30.14 30.65 31.10 31.63 32.29 33.19
26.27 26.00 25.83 25.83 25.38 25.47 25.67 25.49 25.49 25.40 24.98 24.33 23.73 23.82 24.15 24.62 23.88 23.82 23.82 23.62 23.35 23.35 23.26 23.11 22.90 22.84 23.11 23.35 23.35 23.43 23.61 23.56 23.52 23.73 24.17 25.03 25.69 25.64 25.39 25.57 25.60 25.69 25.92 26.27 27.44 29.13 30.22 30.35 28.78 28.51 28.72 28.52 29.06 29.58 30.29 31.53 32.02 31.31 31.01 32.27 31.93 31.49 31.17 30.75 31.40 31.73 32.05 32.03 32.30
26.45 26.00 25.58 25.38 25.20 25.49 25.67 25.25 24.96 24.54 24.27 23.82 23.29 23.20 23.11 23.02 23.02 23.35 23.46 22.84 22.84 22.93 23.26 23.64 23.61 23.46 23.37 23.35 23.79 24.17 24.32 24.23 24.35 24.43 24.77 25.67 26.21 26.00 25.48 25.15 25.22 25.66 26.27 27.05 28.31 29.34 29.97 29.70 28.91 28.54 28.26 28.00 28.95 30.72 32.20 31.77 31.83 31.56 31.46 31.79 31.81 31.81 31.78 31.74 31.93 31.84 31.55 31.05 30.93
26.63 26.00 25.50 25.23 25.38 25.49 25.43 24.98 24.62 24.15 23.79 23.52 23.29 23.20 23.08 22.81 23.43 23.64 23.52 23.37 23.37 23.26 23.52 24.59 24.88 24.87 24.69 24.68 24.97 25.32 25.60 26.01 26.11 26.22 26.45 26.90 26.10 25.60 25.41 25.21 25.33 25.74 26.53 27.41 28.13 28.61 29.09 29.99 30.13 30.03 29.62 29.33 29.62 31.33 32.76 32.07 31.90 31.72 31.72 31.62 31.72 32.06 32.28 32.46 32.02 31.55 30.97 30.37 29.96
26.72 26.31 25.92 25.74 25.77 25.74 25.31 24.54 24.60 24.27 23.97 23.70 23.91 24.33 24.15 23.26 24.85 25.29 25.20 25.13 24.97 24.60 24.94 26.27 26.39 26.66 27.01 27.44 27.49 27.71 28.04 28.39 28.66 28.37 27.61 26.48 25.51 25.03 24.97 25.57 25.77 26.03 26.55 27.27 27.78 28.48 29.24 30.11 30.51 30.74 30.56 30.12 29.43 30.90 32.62 32.35 32.28 32.13 31.93 31.79 32.14 32.46 32.96 33.15 32.35 31.56 30.68 29.93 29.21
26.75 26.57 26.37 26.04 25.65 25.56 25.29 24.33 24.75 24.51 24.24 24.06 25.49 25.50 25.16 25.23 27.01 27.68 27.25 25.93 25.85 26.36 27.02 27.10 27.33 28.00 28.60 28.62 28.64 28.69 28.74 29.11 28.96 27.93 26.56 25.15 25.11 24.85 24.79 25.41 25.68 25.86 26.20 26.88 27.34 28.42 29.47 29.96 31.76 32.14 31.76 30.74 30.12 31.33 32.79 33.00 33.00 32.84 32.69 32.62 32.83 33.19 33.48 33.30 32.32 31.25 30.03 28.58 27.83
26.66 26.57 26.45 25.94 25.40 25.11 24.84 24.40 24.84 24.87 24.85 25.49 27.22 26.38 25.48 26.63 28.27 28.88 28.51 27.02 26.93 27.34 27.44 27.01 27.19 27.31 27.52 28.09 28.70 28.90 28.95 28.95 28.37 26.58 24.71 23.72 24.23 24.49 24.61 24.70 24.76 25.06 25.73 26.62 26.87 27.95 29.10 29.91 31.15 32.02 32.41 32.14 32.02 32.55 33.31 33.49 33.49 33.39 33.41 33.41 33.64 33.93 33.82 32.83 31.70 30.56 29.26 27.68 27.16
26.73 26.45 26.21 25.61 24.98 24.54 24.33 24.31 25.14 25.86 26.63 27.41 27.48 26.88 26.48 27.53 28.76 29.11 28.81 28.17 27.40 26.57 25.94 26.15 27.08 26.73 26.30 26.57 28.19 28.86 28.88 28.64 26.45 24.53 23.43 23.10 23.46 23.81 24.08 24.08 24.05 24.32 25.16 26.54 27.05 27.77 28.65 29.27 30.26 31.35 32.24 32.59 33.26 33.53 33.71 33.91 33.90 33.97 33.97 34.17 34.41 34.30 33.74 32.55 31.30 30.08 29.10 28.21 27.88
26.75 26.30 25.78 25.06 24.59 24.33 24.33 24.71 25.93 27.18 27.93 27.51 27.33 27.52 28.09 28.39 28.60 28.54 28.39 28.37 27.67 26.22 25.29 26.24 27.26 27.54 27.24 27.06 28.13 28.62 28.60 28.27 24.99 23.63 23.25 22.90 22.92 23.10 23.28 23.46 23.79 24.08 24.87 26.12 26.82 27.41 27.96 28.39 29.57 31.49 33.13 33.52 33.79 33.96 34.05 34.30 34.46 34.41 34.41 34.68 34.74 34.59 33.77 32.53 31.70 31.14 30.52 29.97 29.74
26.81 26.05 25.40 24.80 24.62 24.62 25.06 25.65 26.74 27.86 28.29 27.69 28.09 28.44 28.62 28.37 28.12 27.16 26.46 26.29 27.44 27.24 26.80 26.93 27.29 27.70 27.97 28.22 28.52 28.10 27.66 27.51 25.93 24.85 23.83 22.84 22.63 22.63 22.90 23.37 23.79 24.05 24.41 25.03 25.55 26.31 27.62 29.26 30.42 31.77 33.04 33.53 33.88 33.88 33.78 33.73 33.35 33.21 33.48 34.49 34.56 34.25 33.70 32.97 32.51 32.27 32.16 31.81 31.65
26.59 25.93 25.24 24.89 24.89 25.15 25.86 26.97 27.36 27.78 28.04 28.48 28.63 28.39 28.30 28.01 27.62 26.64 25.82 26.04 27.41 27.86 27.66 27.43 27.43 27.62 27.94 28.21 28.27 26.80 25.40 25.68 25.03 24.27 23.52 22.84 22.66 22.81 23.25 23.72 23.64 23.96 24.66 25.50 26.10 26.98 28.21 29.81 30.73 31.08 31.19 31.85 32.72 32.83 32.41 32.05 32.03 32.32 32.84 33.21 33.83 33.80 33.41 33.17 32.97 32.78 32.62 32.46 32.36
26.38 25.84 25.33 24.94 24.85 25.21 26.01 27.28 27.69 27.88 27.96 27.93 27.84 27.43 27.09 26.87 26.53 26.61 27.05 27.61 27.66 27.31 27.26 27.42 27.69 27.84 27.86 28.05 26.85 25.04 24.05 24.94 24.06 23.35 23.17 23.19 23.16 23.34 23.79 24.35 23.90 23.90 24.43 25.22 26.02 26.83 27.72 28.99 29.71 30.05 30.19 30.37 30.78 31.10 31.03 30.36 30.72 31.31 31.74 31.72 32.78 33.13 33.11 32.97 32.87 32.72 32.71 32.73 32.68
25.78 25.48 25.15 25.03 24.79 25.12 25.86 27.34 27.98 27.53 26.82 26.57 26.44 26.03 25.49 24.98 25.15 26.19 27.25 27.61 26.55 26.29 26.37 26.35 27.49 27.51 26.90 26.29 24.70 23.69 23.28 23.73 23.38 23.20 23.17 23.35 23.28 23.43 23.79 24.41 23.34 22.84 22.84 23.25 23.96 25.51 27.30 28.89 29.38 29.57 29.50 28.88 28.62 28.88 29.31 29.41 29.42 29.98 30.65 31.15 31.85 32.37 32.58 32.58 32.62 32.69 32.73 32.92 33.00
25.48 25.06 24.88 25.12 25.04 25.43 26.14 26.89 26.26 25.38 24.85 25.41 25.60 25.05 24.70 25.42 25.96 26.72 27.05 26.45 25.49 25.51 25.34 23.81 26.21 25.70 24.18 23.37 22.81 22.28 21.83 21.39 21.21 21.41 21.68 21.92 21.68 21.83 22.10 22.48 22.01 21.92 22.18 23.10 24.08 25.39 26.73 27.91 28.34 28.43 28.18 27.52 26.85 27.03 27.83 28.97 29.50 29.63 29.70 30.30 31.19 31.76 32.07 32.34 32.49 32.72 32.90 33.21 33.38
25.47 25.23 25.24 25.83 25.29 25.31 25.57 25.47 24.49 23.72 23.64 24.07 25.14 25.50 25.54 25.71 26.34 26.45 26.21 25.86 24.79 23.91 23.01 22.01 23.27 23.25 22.54 22.22 21.95 21.42 20.76 19.90 19.46 19.61 20.05 20.35 20.26 20.17 20.35 20.76 21.06 21.77 23.12 25.09 27.36 28.50 28.52 27.61 27.43 27.10 26.68 26.14 26.23 26.65 27.62 28.87 29.53 29.54 29.37 29.76 30.45 30.92 31.53 31.98 32.35 32.72 33.01 33.17 33.38
25.67 25.39 25.34 25.59 25.02 24.27 23.91 24.17 23.69 23.25 23.34 24.86 25.75 26.13 25.95 25.28 25.86 25.70 25.02 23.83 22.63 22.13 21.86 21.12 20.70 20.58 20.43 20.35 20.70 20.70 20.49 19.72 19.61 19.61 19.73 19.73 19.44 19.35 19.46 19.88 20.88 22.71 24.94 27.43 30.50 31.61 31.31 30.22 29.00 27.46 26.12 25.61 26.21 27.08 27.87 29.24 29.97 30.14 30.19 30.28 30.21 30.46 30.86 31.53 32.16 32.62 33.12 33.23 32.79
25.50 25.22 24.96 24.93 24.09 23.46 23.07 23.10 22.89 23.60 24.60 25.29 25.86 26.20 26.21 25.93 25.09 23.56 21.92 20.59 20.41 20.61 20.49 19.43 18.66 19.10 19.78 19.10 18.83 18.89 19.07 18.98 19.43 19.55 19.20 18.76 18.76 18.76 19.02 19.25 20.98 23.39 26.48 29.90 31.34 31.94 31.94 32.15 31.37 29.68 27.52 25.94 26.05 26.66 27.62 28.66 29.95 30.62 30.82 31.06 30.89 30.81 30.83 31.04 31.47 32.09 32.66 32.97 32.21
25.13 24.60 24.33 24.50 23.61 23.01 22.75 22.84 23.69 24.61 25.14 24.79 25.60 25.94 25.82 25.05 22.92 21.06 19.78 19.10 19.43 19.60 19.34 18.48 18.48 19.37 19.81 18.63 17.83 17.78 18.02 18.01 18.72 19.11 18.94 18.35 18.42 18.59 18.89 19.20 20.70 23.59 27.00 30.52 31.27 31.56 31.56 31.62 31.50 30.79 29.36 27.00 26.13 26.27 26.90 27.62 28.62 29.52 30.18 30.62 30.99 31.08 30.99 30.62 30.53 30.89 31.35 32.02 31.54
24.71 24.09 23.82 23.90 23.72 23.43 23.19 22.84 23.69 24.58 25.41 25.82 25.69 25.74 24.95 22.30 20.94 19.96 19.25 18.81 18.83 18.48 17.92 17.38 18.45 18.63 18.18 17.21 17.25 17.52 17.79 17.70 18.02 18.31 18.46 18.15 18.24 18.36 18.62 19.02 19.74 23.32 27.76 31.18 31.00 30.89 30.90 30.97 30.96 30.58 29.60 27.71 26.44 26.01 25.94 25.86 26.21 26.89 27.52 27.75 28.85 29.75 30.08 29.80 29.74 29.80 29.99 30.23 30.61
24.17 23.73 23.46 23.72 23.90 23.78 23.63 23.52 24.66 25.22 25.42 25.48 25.67 25.15 23.83 21.74 20.70 19.81 19.19 18.92 18.36 17.59 16.77 16.35 17.74 17.51 16.77 16.42 16.63 16.85 17.02 17.20 17.52 17.70 17.64 17.71 17.92 18.10 18.42 18.97 19.61 23.21 27.52 30.89 30.48 30.39 30.44 30.43 30.29 29.91 29.13 28.01 26.04 24.89 24.22 23.99 24.23 24.53 24.89 25.32 25.58 26.38 27.68 28.96 28.96 28.90 28.87 28.63 28.79
23.64 23.28 23.19 23.55 23.87 24.05 24.08 24.31 24.98 25.39 25.42 25.24 24.68 23.19 21.50 20.61 19.87 19.16 18.45 17.68 17.16 17.03 17.15 17.12 16.59 16.24 16.01 16.40 16.40 16.56 16.91 17.26 17.29 17.17 17.01 17.02 17.58 17.99 18.45 19.39 19.85 23.21 27.34 30.02 29.69 29.69 29.81 29.90 29.73 29.23 28.38 27.41 26.05 24.79 23.83 23.39 23.19 23.19 23.34 23.63 23.80 24.41 25.33 27.00 27.35 27.41 27.17 27.03 26.80
22.98 22.81 22.81 23.34 23.78 23.96 24.25 24.69 25.22 25.39 25.12 24.24 22.45 21.12 20.08 19.28 18.84 18.04 17.21 16.71 16.95 17.39 17.51 16.59 15.75 15.67 15.89 15.96 16.11 16.48 16.87 17.04 17.18 17.10 17.01 16.87 17.93 18.17 18.20 18.34 19.12 22.59 26.66 29.24 29.05 29.07 29.23 29.37 29.28 28.61 27.76 26.84 25.43 24.20 23.38 22.86 22.68 22.59 22.74 22.89 23.24 23.76 24.34 24.85 25.20 25.28 25.14 24.84 24.58
22.63 22.66 22.92 23.19 23.42 23.78 24.25 24.72 25.12 24.80 23.89 22.15 20.85 20.05 19.34 18.37 17.48 16.50 15.97 16.23 16.59 16.50 16.07 15.57 15.89 16.16 16.22 16.07 16.25 16.58 16.79 16.97 17.02 17.13 17.10 16.78 16.97 17.24 17.68 18.11 18.87 22.28 26.25 28.58 28.41 28.50 28.71 28.80 28.62 27.94 27.14 26.27 24.91 23.47 22.33 21.77 21.86 21.92 21.99 22.02 22.32 22.63 22.93 23.23 23.19 23.11 22.97 22.79 22.83
22.45 22.36 22.54 22.54 22.95 23.48 24.09 24.62 24.41 23.27 22.03 20.85 20.35 19.79 18.93 17.42 16.23 15.70 15.70 16.35 16.06 15.54 15.26 15.85 16.07 16.31 16.35 16.32 16.45 16.54 16.80 17.03 17.10 17.46 17.72 17.28 16.94 17.07 17.55 17.94 18.51 22.70 26.89 27.84 27.90 28.06 28.14 28.25 28.04 27.30 26.47 25.65 23.99 22.28 20.93 20.84 21.10 21.23 21.24 21.19 21.54 21.75 21.92 22.06 22.01 21.84 21.81 21.75 21.99
22.15 22.12 22.06 22.15 22.59 22.97 23.03 22.86 21.95 21.00 20.38 20.23 20.05 19.37 18.27 16.50 15.83 15.74 16.09 16.77 15.88 15.12 14.91 15.31 15.52 15.67 15.62 15.60 15.87 16.32 16.89 17.82 17.28 16.87 16.60 16.60 16.71 17.04 17.22 16.91 17.62 22.54 27.08 27.24 27.35 27.51 27.73 27.84 27.46 26.80 25.88 24.92 23.22 21.42 20.24 20.27 20.33 20.31 20.29 20.32 20.62 21.03 21.29 21.41 21.38 21.33 21.33 21.21 21.41
22.15 22.12 22.07 21.86 21.45 21.16 20.80 20.04 19.65 19.50 19.56 19.35 19.19 18.27 16.97 15.65 15.54 15.62 16.18 17.24 16.15 14.94 14.21 14.47 14.65 14.69 14.86 14.99 15.36 16.14 16.92 17.78 17.54 17.23 16.93 16.49 16.50 16.67 16.73 16.57 17.34 22.02 26.47 26.91 27.08 27.24 27.35 27.35 27.05 26.30 25.21 23.87 22.07 20.63 19.67 19.53 19.36 19.27 19.36 19.43 19.67 20.16 20.51 20.76 20.86 20.90 20.96 20.95 21.06
21.98 21.80 21.42 20.62 19.91 19.33 18.89 18.45 18.50 18.76 18.90 18.72 18.13 17.15 16.06 15.09 14.74 14.91 15.65 17.42 16.24 14.99 14.17 14.17 14.47 14.84 15.26 15.43 15.81 16.61 17.28 17.25 17.57 17.79 17.64 17.04 16.49 16.13 15.93 16.14 16.80 20.87 25.18 26.53 26.67 26.83 26.94 27.02 26.66 25.88 24.59 22.59 20.78 19.81 19.37 19.11 18.93 18.76 18.59 18.56 18.82 19.18 19.69 20.25 20.47 20.70 20.70 20.80 21.07
21.10 20.74 20.21 19.50 18.89 18.53 18.18 17.97 17.91 17.84 17.83 17.56 16.88 16.15 15.54 14.86 14.60 14.65 15.21 16.51 15.15 14.73 14.77 14.50 15.04 15.59 16.02 16.05 16.06 16.31 16.61 16.89 17.24 17.41 17.52 17.55 16.60 16.00 15.73 15.73 15.93 19.07 23.18 25.98 26.20 26.42 26.53 26.69 26.39 25.38 23.75 21.40 19.97 19.24 18.97 18.87 18.64 18.35 18.04 17.96 18.12 18.42 18.93 19.48 19.79 20.05 20.26 20.73 21.49
20.04 19.77 19.42 18.86 18.24 17.92 17.62 17.38 17.31 16.98 16.79 16.17 15.70 15.12 14.60 14.28 14.33 14.65 15.36 16.72 15.08 14.91 15.27 15.15 15.50 15.94 16.22 16.40 16.50 16.50 16.59 16.76 17.15 17.21 17.20 17.20 16.91 16.40 15.90 15.56 15.80 18.15 21.64 25.17 25.76 25.96 26.12 26.34 26.14 25.30 23.50 20.73 19.50 18.97 18.79 18.55 18.24 17.88 17.74 17.70 17.76 18.02 18.36 18.81 19.00 19.24 19.69 20.60 22.11
19.22 19.04 18.78 18.45 18.07 17.62 17.20 16.86 16.71 16.54 16.23 15.56 14.94 14.38 13.98 14.02 14.42 15.29 16.18 16.55 15.10 15.13 15.62 15.86 15.97 16.22 16.66 17.26 16.74 16.51 16.57 16.60 17.10 17.39 17.39 17.15 17.87 17.96 17.46 15.75 15.84 17.60 20.72 24.38 25.22 25.55 25.69 25.88 25.79 25.31 23.94 21.29 19.69 19.06 18.74 18.28 17.88 17.54 17.45 17.45 17.49 17.58 17.90 18.41 18.79 18.83 19.18 20.17 22.15
18.78 18.46 18.43 18.28 18.09 17.64 16.99 16.24 16.07 15.89 15.71 15.45 15.08 14.64 14.35 14.79 15.80 16.88 17.15 15.62 14.91 15.26 15.87 16.32 16.46 16.89 17.36 17.93 16.74 16.19 16.11 16.05 16.32 16.93 17.45 17.62 18.77 19.64 19.28 16.49 16.08 17.06 19.50 23.20 24.65 25.15 25.23 25.47 25.52 25.27 24.09 21.53 19.85 19.13 18.71 18.20 17.68 17.32 17.19 17.19 17.49 17.55 17.76 18.08 18.56 18.66 18.61 18.49 19.92
18.63 18.45 18.36 18.36 18.06 17.70 16.90 15.93 15.57 15.45 15.48 15.70 15.62 15.53 15.67 16.19 16.07 16.00 15.62 14.43 14.75 15.38 16.01 16.54 16.62 16.94 17.19 17.67 16.54 16.14 15.93 15.73 15.82 16.22 16.80 17.72 18.43 19.10 18.96 16.84 16.30 16.48 17.85 21.12 23.70 24.66 24.75 24.98 25.20 25.06 24.28 22.22 20.09 19.08 18.58 18.12 17.59 17.19 16.96 17.09 17.53 17.82 17.93 17.93 17.99 18.06 17.76 17.00 17.11
MSLP
1022.90 1023.10 1023.30 1023.54 1023.74 1023.98 1024.18 1024.38 1024.54 1024.62 1024.70 1024.90 1025.10 1025.26 1025.34 1025.42 1025.54 1025.58 1025.62 1025.66 1025.70 1025.78 1025.86 1025.86 1025.86 1025.90 1025.90 1025.86 1025.86 1025.78 1025.74 1025.74 1025.70 1025.70 1025.70 1025.66 1025.66 1025.62 1025.58 1025.58 1025.58 1025.58 1025.58 1025.58 1025.58 1025.58 1025.58 1025.54 1025.46 1025.42 1025.42 1025.42 1025.42 1025.42 1025.46 1025.46 1025.42 1025.34 1025.30 1025.22 1025.14 1025.06 1025.02 1025.02 1024.94 1024.86 1024.74 1024.70 1024.70
1023.02 1023.18 1023.38 1023.58 1023.82 1024.02 1024.30 1024.50 1024.62 1024.70 1024.86 1025.02 1025.14 1025.30 1025.38 1025.42 1025.54 1025.62 1025.70 1025.74 1025.74 1025.78 1025.82 1025.86 1025.90 1025.90 1025.90 1025.86 1025.86 1025.82 1025.78 1025.78 1025.74 1025.74 1025.74 1025.70 1025.70 1025.66 1025.62 1025.58 1025.62 1025.62 1025.62 1025.62 1025.62 1025.62 1025.58 1025.58 1025.58 1025.50 1025.46 1025.42 1025.50 1025.50 1025.50 1025.50 1025.46 1025.42 1025.34 1025.30 1025.26 1025.14 1025.06 1025.02 1025.02 1024.94 1024.86 1024.78 1024.78
1023.14 1023.30 1023.46 1023.66 1023.86 1024.10 1024.30 1024.58 1024.74 1024.90 1025.06 1025.18 1025.26 1025.30 1025.38 1025.42 1025.50 1025.58 1025.70 1025.74 1025.78 1025.78 1025.78 1025.82 1025.86 1025.90 1025.86 1025.86 1025.86 1025.82 1025.78 1025.78 1025.78 1025.78 1025.78 1025.74 1025.70 1025.70 1025.66 1025.62 1025.58 1025.62 1025.66 1025.66 1025.66 1025.66 1025.62 1025.62 1025.58 1025.54 1025.50 1025.46 1025.54 1025.58 1025.58 1025.58 1025.54 1025.50 1025.42 1025.42 1025.30 1025.22 1025.10 1025.02 1025.02 1024.98 1024.86 1024.86 1024.86
1023.26 1023.42 1023.58 1023.74 1023.94 1024.14 1024.34 1024.58 1024.82 1025.02 1025.18 1025.30 1025.38 1025.42 1025.42 1025.42 1025.50 1025.58 1025.70 1025.74 1025.74 1025.78 1025.82 1025.86 1025.86 1025.86 1025.86 1025.82 1025.82 1025.82 1025.82 1025.78 1025.78 1025.82 1025.82 1025.78 1025.74 1025.74 1025.70 1025.70 1025.70 1025.70 1025.66 1025.66 1025.66 1025.66 1025.66 1025.66 1025.58 1025.58 1025.54 1025.54 1025.58 1025.58 1025.58 1025.58 1025.58 1025.54 1025.46 1025.42 1025.34 1025.26 1025.14 1025.14 1025.10 1025.10 1025.06 1025.06 1025.06
1023.42 1023.54 1023.70 1023.86 1024.02 1024.18 1024.38 1024.58 1024.82 1025.02 1025.22 1025.30 1025.42 1025.46 1025.50 1025.54 1025.58 1025.58 1025.66 1025.70 1025.70 1025.74 1025.82 1025.82 1025.82 1025.82 1025.82 1025.78 1025.78 1025.82 1025.82 1025.78 1025.74 1025.78 1025.82 1025.82 1025.82 1025.78 1025.74 1025.70 1025.70 1025.70 1025.70 1025.70 1025.70 1025.70 1025.70 1025.70 1025.62 1025.58 1025.58 1025.58 1025.58 1025.62 1025.70 1025.70 1025.66 1025.58 1025.58 1025.46 1025.38 1025.30 1025.30 1025.30 1025.26 1025.30 1025.30 1025.26 1025.22
1023.58 1023.78 1023.90 1024.02 1024.18 1024.34 1024.50 1024.66 1024.86 1025.02 1025.22 1025.30 1025.42 1025.58 1025.62 1025.58 1025.58 1025.62 1025.66 1025.70 1025.74 1025.78 1025.78 1025.74 1025.74 1025.74 1025.74 1025.74 1025.78 1025.82 1025.82 1025.82 1025.82 1025.82 1025.82 1025.82 1025.82 1025.82 1025.78 1025.78 1025.78 1025.74 1025.74 1025.70 1025.70 1025.74 1025.78 1025.78 1025.70 1025.70 1025.66 1025.70 1025.70 1025.74 1025.82 1025.78 1025.78 1025.70 1025.70 1025.58 1025.54 1025.50 1025.54 1025.54 1025.50 1025.46 1025.42 1025.38 1025.34
1023.70 1023.90 1024.06 1024.26 1024.34 1024.46 1024.62 1024.78 1024.98 1025.10 1025.26 1025.34 1025.50 1025.62 1025.70 1025.70 1025.70 1025.70 1025.70 1025.70 1025.70 1025.70 1025.70 1025.70 1025.70 1025.70 1025.70 1025.74 1025.78 1025.82 1025.86 1025.86 1025.86 1025.86 1025.86 1025.86 1025.86 1025.86 1025.86 1025.86 1025.86 1025.82 1025.78 1025.78 1025.82 1025.86 1025.86 1025.86 1025.86 1025.82 1025.78 1025.78 1025.82 1025.86 1025.90 1025.98 1025.90 1025.86 1025.82 1025.82 1025.70 1025.70 1025.74 1025.74 1025.70 1025.58 1025.54 1025.46 1025.42
1023.74 1024.02 1024.18 1024.34 1024.46 1024.62 1024.74 1024.86 1025.02 1025.14 1025.26 1025.38 1025.58 1025.70 1025.74 1025.74 1025.78 1025.78 1025.74 1025.70 1025.70 1025.70 1025.70 1025.70 1025.74 1025.74 1025.78 1025.78 1025.82 1025.86 1025.86 1025.86 1025.86 1025.90 1025.90 1025.90 1025.90 1025.94 1025.90 1025.86 1025.86 1025.86 1025.86 1025.90 1025.90 1025.94 1025.98 1025.94 1025.94 1025.94 1025.94 1025.94 1025.94 1026.02 1026.06 1026.06 1026.02 1025.98 1025.98 1026.02 1025.98 1025.94 1025.86 1025.86 1025.78 1025.70 1025.66 1025.58 1025.50
1023.86 1024.10 1024.26 1024.42 1024.58 1024.70 1024.86 1024.90 1025.02 1025.14 1025.30 1025.42 1025.54 1025.62 1025.70 1025.74 1025.82 1025.82 1025.82 1025.78 1025.74 1025.70 1025.70 1025.70 1025.74 1025.78 1025.82 1025.82 1025.86 1025.86 1025.86 1025.86 1025.90 1025.94 1025.98 1025.98 1025.98 1026.02 1025.98 1025.98 1025.98 1025.98 1025.98 1026.02 1026.02 1026.02 1026.02 1026.02 1026.02 1026.02 1026.06 1026.10 1026.14 1026.14 1026.14 1026.14 1026.14 1026.10 1026.10 1026.10 1026.06 1026.02 1025.98 1025.94 1025.86 1025.82 1025.74 1025.62 1025.54
1023.90 1024.14 1024.30 1024.54 1024.66 1024.78 1024.86 1024.98 1025.06 1025.14 1025.30 1025.42 1025.54 1025.62 1025.70 1025.74 1025.82 1025.86 1025.86 1025.86 1025.78 1025.74 1025.74 1025.78 1025.78 1025.82 1025.82 1025.86 1025.86 1025.90 1025.90 1025.90 1025.94 1025.98 1026.02 1026.02 1026.02 1026.02 1026.06 1026.06 1026.10 1026.10 1026.10 1026.10 1026.10 1026.10 1026.10 1026.10 1026.14 1026.18 1026.18 1026.22 1026.26 1026.26 1026.30 1026.26 1026.26 1026.26 1026.22 1026.14 1026.14 1026.14 1026.10 1026.02 1025.94 1025.86 1025.82 1025.70 1025.62
1023.86 1024.14 1024.34 1024.54 1024.70 1024.82 1024.94 1025.06 1025.14 1025.22 1025.30 1025.42 1025.54 1025.62 1025.70 1025.82 1025.86 1025.90 1025.94 1025.90 1025.86 1025.86 1025.86 1025.86 1025.82 1025.86 1025.86 1025.90 1025.90 1025.94 1025.94 1025.98 1025.98 1026.02 1026.02 1026.06 1026.02 1026.06 1026.10 1026.14 1026.14 1026.14 1026.18 1026.18 1026.18 1026.14 1026.14 1026.18 1026.26 1026.30 1026.30 1026.34 1026.34 1026.30 1026.30 1026.34 1026.30 1026.30 1026.30 1026.30 1026.26 1026.22 1026.14 1026.10 1026.02 1025.94 1025.90 1025.86 1025.82
1023.86 1024.14 1024.34 1024.54 1024.70 1024.82 1024.98 1025.10 1025.18 1025.26 1025.30 1025.38 1025.50 1025.58 1025.70 1025.82 1025.90 1025.94 1025.98 1025.98 1025.98 1025.98 1025.94 1025.90 1025.86 1025.86 1025.90 1025.94 1025.94 1025.98 1025.98 1025.98 1026.02 1026.02 1026.02 1026.06 1026.10 1026.14 1026.14 1026.22 1026.22 1026.22 1026.26 1026.26 1026.22 1026.22 1026.22 1026.30 1026.30 1026.34 1026.38 1026.34 1026.34 1026.30 1026.30 1026.34 1026.30 1026.30 1026.30 1026.30 1026.26 1026.22 1026.14 1026.10 1026.06 1026.06 1026.02 1026.02 1026.02
1023.86 1024.18 1024.42 1024.58 1024.70 1024.82 1024.98 1025.10 1025.18 1025.22 1025.30 1025.34 1025.42 1025.54 1025.66 1025.78 1025.86 1025.94 1026.02 1026.02 1026.02 1026.02 1025.98 1025.90 1025.90 1025.90 1025.94 1025.94 1025.98 1026.02 1026.02 1025.98 1025.98 1026.02 1026.02 1026.06 1026.14 1026.14 1026.18 1026.26 1026.26 1026.30 1026.30 1026.30 1026.30 1026.30 1026.30 1026.30 1026.30 1026.34 1026.34 1026.34 1026.34 1026.30 1026.30 1026.30 1026.30 1026.30 1026.30 1026.26 1026.22 1026.18 1026.14 1026.10 1026.10 1026.14 1026.14 1026.14 1026.14
1023.90 1024.22 1024.46 1024.62 1024.70 1024.82 1024.94 1025.06 1025.14 1025.22 1025.26 1025.30 1025.34 1025.42 1025.58 1025.70 1025.86 1025.90 1025.98 1026.02 1026.02 1026.02 1025.94 1025.94 1025.90 1025.94 1025.94 1025.90 1025.94 1025.94 1025.94 1025.94 1025.98 1026.02 1026.06 1026.14 1026.14 1026.22 1026.26 1026.30 1026.30 1026.30 1026.30 1026.30 1026.30 1026.30 1026.30 1026.30 1026.30 1026.30 1026.30 1026.30 1026.34 1026.30 1026.26 1026.22 1026.22 1026.18 1026.18 1026.18 1026.14 1026.10 1026.06 1026.10 1026.10 1026.14 1026.18 1026.18 1026.14
1024.02 1024.30 1024.50 1024.66 1024.74 1024.86 1024.94 1025.06 1025.14 1025.18 1025.26 1025.30 1025.30 1025.38 1025.50 1025.62 1025.70 1025.86 1025.98 1026.02 1026.02 1025.98 1025.94 1025.98 1025.98 1025.94 1025.94 1025.94 1025.98 1025.98 1026.02 1026.02 1026.02 1026.06 1026.14 1026.18 1026.18 1026.26 1026.30 1026.30 1026.30 1026.30 1026.30 1026.30 1026.30 1026.30 1026.26 1026.26 1026.22 1026.18 1026.18 1026.26 1026.26 1026.22 1026.14 1026.14 1026.14 1026.10 1026.10 1026.10 1026.06 1026.02 1026.02 1026.06 1026.14 1026.14 1026.18 1026.18 1026.14
1024.02 1024.30 1024.54 1024.70 1024.78 1024.86 1024.94 1025.02 1025.10 1025.14 1025.22 1025.18 1025.22 1025.30 1025.42 1025.54 1025.66 1025.78 1025.90 1026.02 1026.02 1026.02 1026.02 1026.02 1026.02 1026.02 1026.02 1026.02 1026.02 1026.02 1026.02 1026.06 1026.06 1026.14 1026.22 1026.26 1026.26 1026.30 1026.30 1026.34 1026.34 1026.34 1026.30 1026.30 1026.30 1026.26 1026.18 1026.14 1026.14 1026.14 1026.14 1026.14 1026.14 1026.14 1026.06 1026.02 1026.02 1026.02 1026.02 1026.02 1026.02 1025.98 1026.02 1026.06 1026.10 1026.14 1026.14 1026.14 1026.14
1024.02 1024.30 1024.50 1024.70 1024.82 1024.86 1024.94 1025.02 1025.06 1025.10 1025.14 1025.14 1025.22 1025.30 1025.42 1025.54 1025.66 1025.82 1025.94 1026.06 1026.14 1026.14 1026.14 1026.10 1026.10 1026.10 1026.14 1026.10 1026.06 1026.06 1026.06 1026.10 1026.14 1026.22 1026.30 1026.30 1026.34 1026.34 1026.34 1026.38 1026.38 1026.34 1026.30 1026.30 1026.30 1026.22 1026.14 1026.14 1026.10 1026.10 1026.06 1026.06 1026.02 1026.02 1026.02 1025.94 1025.94 1025.94 1025.94 1025.90 1025.90 1025.90 1025.94 1026.02 1026.02 1026.06 1026.10 1026.10 1026.06
1023.98 1024.26 1024.46 1024.62 1024.78 1024.86 1024.94 1024.98 1025.02 1025.06 1025.10 1025.14 1025.22 1025.30 1025.42 1025.58 1025.74 1025.90 1026.02 1026.14 1026.14 1026.18 1026.22 1026.14 1026.14 1026.10 1026.10 1026.10 1026.10 1026.06 1026.10 1026.14 1026.22 1026.30 1026.30 1026.38 1026.38 1026.42 1026.42 1026.38 1026.38 1026.34 1026.30 1026.30 1026.26 1026.22 1026.18 1026.14 1026.10 1026.02 1026.02 1025.98 1025.94 1025.90 1025.90 1025.86 1025.86 1025.86 1025.86 1025.86 1025.86 1025.86 1025.90 1025.94 1025.98 1025.98 1025.98 1025.98 1025.94
1023.94 1024.18 1024.42 1024.58 1024.70 1024.82 1024.86 1024.94 1025.02 1025.02 1025.10 1025.14 1025.22 1025.30 1025.46 1025.62 1025.78 1025.98 1026.14 1026.22 1026.18 1026.22 1026.22 1026.14 1026.14 1026.10 1026.10 1026.10 1026.06 1026.10 1026.14 1026.18 1026.26 1026.30 1026.34 1026.42 1026.42 1026.42 1026.42 1026.38 1026.34 1026.34 1026.30 1026.26 1026.26 1026.18 1026.14 1026.10 1026.02 1025.98 1025.94 1025.90 1025.86 1025.86 1025.86 1025.86 1025.86 1025.86 1025.86 1025.82 1025.82 1025.86 1025.86 1025.90 1025.90 1025.90 1025.86 1025.86 1025.86
1023.86 1024.14 1024.30 1024.42 1024.58 1024.70 1024.82 1024.90 1024.98 1025.02 1025.10 1025.14 1025.26 1025.38 1025.54 1025.70 1025.86 1026.02 1026.14 1026.26 1026.30 1026.26 1026.22 1026.18 1026.14 1026.14 1026.14 1026.10 1026.10 1026.14 1026.22 1026.30 1026.30 1026.34 1026.38 1026.42 1026.42 1026.42 1026.34 1026.34 1026.34 1026.30 1026.26 1026.18 1026.18 1026.14 1026.06 1026.02 1025.98 1025.94 1025.94 1025.90 1025.86 1025.86 1025.86 1025.86 1025.86 1025.86 1025.82 1025.82 1025.82 1025.86 1025.86 1025.86 1025.86 1025.86 1025.82 1025.82 1025.78
1023.86 1024.06 1024.22 1024.34 1024.46 1024.58 1024.70 1024.86 1024.98 1025.02 1025.14 1025.22 1025.30 1025.42 1025.58 1025.78 1025.90 1026.06 1026.18 1026.30 1026.30 1026.30 1026.30 1026.30 1026.22 1026.14 1026.14 1026.14 1026.14 1026.22 1026.26 1026.30 1026.34 1026.38 1026.42 1026.42 1026.42 1026.38 1026.34 1026.30 1026.30 1026.30 1026.22 1026.18 1026.14 1026.10 1026.06 1026.02 1026.02 1025.98 1025.94 1025.94 1025.90 1025.86 1025.86 1025.86 1025.86 1025.82 1025.82 1025.82 1025.82 1025.86 1025.86 1025.86 1025.82 1025.78 1025.74 1025.70 1025.70
1023.82 1024.02 1024.14 1024.26 1024.38 1024.54 1024.70 1024.78 1024.94 1025.10 1025.18 1025.30 1025.42 1025.50 1025.66 1025.86 1025.98 1026.10 1026.22 1026.30 1026.38 1026.38 1026.34 1026.30 1026.26 1026.18 1026.18 1026.18 1026.26 1026.30 1026.30 1026.30 1026.34 1026.38 1026.42 1026.42 1026.38 1026.38 1026.34 1026.30 1026.30 1026.26 1026.26 1026.18 1026.14 1026.14 1026.10 1026.02 1025.98 1025.94 1025.94 1025.94 1025.94 1025.90 1025.86 1025.86 1025.86 1025.86 1025.82 1025.82 1025.82 1025.82 1025.82 1025.82 1025.78 1025.74 1025.70 1025.70 1025.62
1023.74 1023.94 1024.06 1024.22 1024.34 1024.50 1024.66 1024.82 1025.02 1025.18 1025.30 1025.34 1025.42 1025.58 1025.74 1025.90 1026.02 1026.14 1026.30 1026.38 1026.42 1026.42 1026.42 1026.34 1026.26 1026.26 1026.30 1026.30 1026.30 1026.30 1026.30 1026.34 1026.38 1026.42 1026.42 1026.42 1026.42 1026.42 1026.38 1026.34 1026.30 1026.30 1026.26 1026.18 1026.14 1026.14 1026.06 1026.02 1025.98 1025.94 1025.94 1025.94 1025.94 1025.94 1025.90 1025.86 1025.82 1025.82 1025.82 1025.82 1025.78 1025.78 1025.74 1025.74 1025.70 1025.70 1025.66 1025.62 1025.54
1023.70 1023.86 1024.02 1024.14 1024.30 1024.50 1024.70 1024.90 1025.10 1025.22 1025.30 1025.38 1025.46 1025.58 1025.78 1025.90 1026.06 1026.18 1026.30 1026.42 1026.42 1026.42 1026.42 1026.42 1026.38 1026.34 1026.34 1026.34 1026.34 1026.34 1026.34 1026.38 1026.42 1026.42 1026.42 1026.42 1026.42 1026.42 1026.42 1026.42 1026.38 1026.34 1026.30 1026.18 1026.10 1026.02 1026.02 1026.02 1025.98 1025.94 1025.94 1025.94 1025.94 1025.90 1025.86 1025.82 1025.78 1025.78 1025.82 1025.82 1025.82 1025.74 1025.70 1025.70 1025.70 1025.66 1025.58 1025.58 1025.50
1023.66 1023.82 1023.98 1024.14 1024.38 1024.58 1024.78 1024.90 1025.06 1025.18 1025.30 1025.38 1025.50 1025.66 1025.82 1025.94 1026.06 1026.18 1026.30 1026.38 1026.42 1026.42 1026.42 1026.42 1026.42 1026.42 1026.42 1026.38 1026.38 1026.38 1026.38 1026.38 1026.42 1026.42 1026.42 1026.42 1026.42 1026.46 1026.46 1026.46 1026.42 1026.34 1026.26 1026.14 1026.02 1025.90 1025.86 1025.90 1025.90 1025.90 1025.94 1025.94 1025.94 1025.90 1025.86 1025.82 1025.74 1025.74 1025.78 1025.78 1025.78 1025.74 1025.70 1025.66 1025.66 1025.62 1025.58 1025.58 1025.50
1023.66 1023.82 1023.98 1024.18 1024.42 1024.58 1024.78 1024.90 1025.02 1025.14 1025.30 1025.42 1025.58 1025.70 1025.82 1025.94 1026.06 1026.18 1026.34 1026.42 1026.50 1026.50 1026.46 1026.50 1026.46 1026.46 1026.42 1026.42 1026.42 1026.42 1026.42 1026.42 1026.42 1026.42 1026.42 1026.46 1026.50 1026.50 1026.50 1026.50 1026.46 1026.38 1026.26 1026.10 1026.02 1025.90 1025.86 1025.82 1025.78 1025.86 1025.94 1025.98 1025.98 1025.98 1025.90 1025.86 1025.78 1025.74 1025.74 1025.74 1025.74 1025.70 1025.70 1025.70 1025.66 1025.66 1025.62 1025.58 1025.58
1023.66 1023.82 1024.02 1024.18 1024.42 1024.62 1024.78 1024.86 1025.02 1025.14 1025.30 1025.42 1025.58 1025.70 1025.86 1025.94 1026.06 1026.22 1026.38 1026.46 1026.50 1026.54 1026.54 1026.50 1026.50 1026.46 1026.42 1026.42 1026.46 1026.46 1026.46 1026.46 1026.46 1026.50 1026.50 1026.50 1026.54 1026.54 1026.54 1026.50 1026.46 1026.38 1026.26 1026.06 1026.02 1025.94 1025.90 1025.86 1025.86 1025.86 1025.94 1026.02 1026.02 1026.06 1026.02 1026.02 1025.98 1025.90 1025.86 1025.82 1025.74 1025.70 1025.70 1025.70 1025.70 1025.70 1025.70 1025.66 1025.66
1023.70 1023.86 1024.02 1024.18 1024.42 1024.58 1024.74 1024.86 1025.02 1025.18 1025.34 1025.46 1025.62 1025.70 1025.82 1025.94 1026.10 1026.26 1026.38 1026.42 1026.50 1026.54 1026.54 1026.54 1026.54 1026.50 1026.46 1026.46 1026.46 1026.50 1026.50 1026.54 1026.54 1026.54 1026.54 1026.58 1026.58 1026.58 1026.58 1026.54 1026.46 1026.34 1026.18 1026.02 1026.02 1026.02 1025.98 1025.94 1025.90 1025.94 1026.02 1026.10 1026.14 1026.14 1026.14 1026.14 1026.14 1026.10 1026.02 1026.02 1025.94 1025.86 1025.82 1025.78 1025.78 1025.78 1025.78 1025.78 1025.74
1023.70 1023.82 1023.98 1024.14 1024.38 1024.58 1024.70 1024.86 1025.02 1025.18 1025.34 1025.46 1025.58 1025.70 1025.82 1025.98 1026.14 1026.26 1026.34 1026.42 1026.50 1026.50 1026.54 1026.54 1026.54 1026.50 1026.46 1026.50 1026.54 1026.54 1026.54 1026.58 1026.58 1026.58 1026.58 1026.58 1026.58 1026.58 1026.58 1026.54 1026.50 1026.38 1026.22 1026.10 1026.10 1026.06 1026.02 1026.02 1025.98 1026.02 1026.14 1026.18 1026.30 1026.30 1026.30 1026.30 1026.30 1026.26 1026.22 1026.18 1026.18 1026.14 1026.02 1025.86 1025.90 1025.90 1025.90 1025.86 1025.86
1023.70 1023.86 1024.02 1024.14 1024.30 1024.50 1024.66 1024.86 1025.02 1025.18 1025.34 1025.42 1025.54 1025.70 1025.86 1026.02 1026.14 1026.26 1026.34 1026.42 1026.46 1026.50 1026.50 1026.50 1026.46 1026.50 1026.54 1026.54 1026.58 1026.58 1026.58 1026.58 1026.58 1026.62 1026.62 1026.62 1026.66 1026.70 1026.66 1026.58 1026.54 1026.42 1026.30 1026.18 1026.14 1026.14 1026.14 1026.06 1026.06 1026.14 1026.22 1026.30 1026.38 1026.42 1026.38 1026.38 1026.38 1026.38 1026.34 1026.34 1026.34 1026.30 1026.22 1026.14 1026.14 1026.10 1026.06 1026.06 1026.06
1023.70 1023.82 1023.98 1024.10 1024.30 1024.46 1024.66 1024.86 1025.02 1025.14 1025.30 1025.42 1025.54 1025.70 1025.86 1026.02 1026.14 1026.30 1026.38 1026.42 1026.46 1026.46 1026.46 1026.46 1026.50 1026.54 1026.58 1026.58 1026.58 1026.62 1026.62 1026.62 1026.66 1026.66 1026.70 1026.70 1026.70 1026.74 1026.70 1026.66 1026.62 1026.54 1026.42 1026.30 1026.30 1026.26 1026.22 1026.14 1026.18 1026.26 1026.34 1026.38 1026.46 1026.50 1026.50 1026.50 1026.46 1026.46 1026.50 1026.50 1026.46 1026.42 1026.38 1026.34 1026.34 1026.34 1026.34 1026.30 1026.26
1023.70 1023.82 1023.94 1024.06 1024.26 1024.42 1024.62 1024.82 1025.02 1025.14 1025.30 1025.42 1025.58 1025.70 1025.90 1026.06 1026.14 1026.26 1026.34 1026.38 1026.42 1026.42 1026.42 1026.46 1026.50 1026.54 1026.58 1026.62 1026.62 1026.66 1026.70 1026.74 1026.74 1026.74 1026.78 1026.82 1026.82 1026.82 1026.78 1026.74 1026.70 1026.62 1026.50 1026.42 1026.38 1026.34 1026.30 1026.30 1026.30 1026.38 1026.42 1026.50 1026.58 1026.58 1026.62 1026.62 1026.58 1026.58 1026.58 1026.58 1026.58 1026.54 1026.54 1026.54 1026.54 1026.50 1026.50 1026.50 1026.42
1023.66 1023.78 1023.90 1024.02 1024.22 1024.42 1024.58 1024.82 1025.02 1025.14 1025.30 1025.42 1025.58 1025.74 1025.90 1026.06 1026.18 1026.30 1026.34 1026.34 1026.38 1026.42 1026.42 1026.46 1026.54 1026.58 1026.66 1026.66 1026.70 1026.70 1026.74 1026.78 1026.82 1026.86 1026.86 1026.86 1026.86 1026.86 1026.86 1026.86 1026.82 1026.70 1026.54 1026.50 1026.42 1026.42 1026.38 1026.34 1026.38 1026.42 1026.50 1026.58 1026.66 1026.70 1026.70 1026.70 1026.70 1026.66 1026.66 1026.70 1026.66 1026.66 1026.66 1026.66 1026.62 1026.58 1026.58 1026.54 1026.50
1023.58 1023.74 1023.90 1024.02 1024.18 1024.38 1024.58 1024.78 1025.02 1025.14 1025.30 1025.50 1025.66 1025.82 1025.94 1026.10 1026.18 1026.26 1026.30 1026.30 1026.38 1026.42 1026.42 1026.54 1026.54 1026.58 1026.66 1026.70 1026.74 1026.78 1026.82 1026.82 1026.86 1026.90 1026.94 1026.98 1026.98 1026.94 1026.94 1026.94 1026.94 1026.74 1026.58 1026.58 1026.50 1026.46 1026.42 1026.42 1026.42 1026.54 1026.62 1026.70 1026.74 1026.82 1026.82 1026.78 1026.74 1026.74 1026.74 1026.78 1026.74 1026.70 1026.70 1026.70 1026.70 1026.66 1026.62 1026.58 1026.54
1023.54 1023.70 1023.86 1024.02 1024.18 1024.42 1024.62 1024.82 1025.02 1025.18 1025.38 1025.58 1025.70 1025.86 1026.02 1026.06 1026.14 1026.22 1026.26 1026.26 1026.30 1026.42 1026.50 1026.58 1026.58 1026.62 1026.70 1026.74 1026.74 1026.78 1026.86 1026.86 1026.90 1026.98 1027.02 1027.02 1027.02 1027.02 1027.02 1027.02 1027.02 1026.86 1026.70 1026.62 1026.58 1026.58 1026.50 1026.50 1026.54 1026.62 1026.70 1026.82 1026.86 1026.86 1026.86 1026.86 1026.86 1026.86 1026.86 1026.86 1026.82 1026.78 1026.74 1026.74 1026.70 1026.70 1026.70 1026.66 1026.58
1023.42 1023.58 1023.78 1024.02 1024.22 1024.42 1024.62 1024.86 1025.02 1025.22 1025.42 1025.62 1025.74 1025.90 1026.02 1026.06 1026.14 1026.18 1026.22 1026.22 1026.30 1026.42 1026.50 1026.58 1026.58 1026.62 1026.70 1026.78 1026.78 1026.86 1026.90 1026.94 1026.98 1027.02 1027.02 1027.10 1027.10 1027.10 1027.10 1027.14 1027.14 1026.98 1026.78 1026.70 1026.62 1026.58 1026.54 1026.54 1026.58 1026.70 1026.78 1026.86 1026.90 1026.90 1026.90 1026.90 1026.94 1026.90 1026.90 1026.90 1026.86 1026.86 1026.86 1026.82 1026.82 1026.78 1026.70 1026.70 1026.62
1023.30 1023.54 1023.74 1023.98 1024.22 1024.42 1024.62 1024.86 1025.06 1025.30 1025.46 1025.62 1025.78 1025.90 1026.02 1026.06 1026.14 1026.18 1026.22 1026.22 1026.30 1026.42 1026.54 1026.58 1026.58 1026.66 1026.74 1026.82 1026.86 1026.94 1026.98 1027.02 1027.02 1027.06 1027.10 1027.14 1027.14 1027.18 1027.18 1027.22 1027.18 1027.10 1026.94 1026.74 1026.70 1026.66 1026.58 1026.58 1026.62 1026.70 1026.82 1026.90 1026.90 1026.94 1026.98 1026.98 1026.98 1026.98 1026.98 1026.94 1026.94 1026.90 1026.86 1026.86 1026.86 1026.82 1026.78 1026.74 1026.66
1023.30 1023.46 1023.70 1023.94 1024.22 1024.42 1024.66 1024.86 1025.06 1025.30 1025.46 1025.62 1025.78 1025.86 1025.98 1026.02 1026.10 1026.14 1026.18 1026.18 1026.30 1026.42 1026.54 1026.58 1026.70 1026.70 1026.78 1026.86 1026.90 1026.98 1027.02 1027.02 1027.02 1027.06 1027.14 1027.18 1027.22 1027.22 1027.26 1027.30 1027.26 1027.22 1027.06 1026.82 1026.74 1026.70 1026.66 1026.62 1026.66 1026.70 1026.82 1026.90 1026.98 1026.98 1026.98 1026.98 1026.98 1026.98 1026.98 1026.98 1026.98 1026.94 1026.90 1026.86 1026.86 1026.86 1026.82 1026.74 1026.66
1023.26 1023.42 1023.66 1023.94 1024.18 1024.46 1024.70 1024.94 1025.14 1025.30 1025.42 1025.58 1025.74 1025.86 1025.94 1025.98 1026.02 1026.10 1026.14 1026.14 1026.26 1026.34 1026.46 1026.58 1026.70 1026.74 1026.78 1026.86 1026.94 1027.02 1027.06 1027.10 1027.10 1027.10 1027.14 1027.18 1027.22 1027.22 1027.26 1027.30 1027.30 1027.30 1027.14 1026.90 1026.82 1026.74 1026.74 1026.70 1026.70 1026.70 1026.82 1026.94 1026.98 1026.98 1026.98 1026.98 1026.98 1026.98 1026.98 1026.98 1026.94 1026.90 1026.90 1026.86 1026.86 1026.86 1026.82 1026.78 1026.70
1023.22 1023.42 1023.66 1023.90 1024.18 1024.42 1024.66 1024.86 1025.10 1025.26 1025.38 1025.54 1025.70 1025.86 1025.86 1025.94 1025.98 1026.02 1026.10 1026.18 1026.26 1026.30 1026.42 1026.58 1026.66 1026.74 1026.82 1026.86 1026.94 1027.02 1027.10 1027.14 1027.14 1027.14 1027.14 1027.22 1027.22 1027.22 1027.26 1027.34 1027.34 1027.34 1027.22 1027.02 1026.86 1026.82 1026.78 1026.74 1026.70 1026.70 1026.78 1026.94 1026.98 1026.98 1026.98 1026.98 1026.94 1026.94 1026.94 1026.94 1026.90 1026.86 1026.86 1026.86 1026.82 1026.82 1026.82 1026.78 1026.74
1023.22 1023.42 1023.66 1023.90 1024.14 1024.42 1024.62 1024.82 1025.02 1025.18 1025.34 1025.50 1025.66 1025.78 1025.86 1025.86 1025.98 1026.06 1026.14 1026.22 1026.26 1026.34 1026.42 1026.58 1026.66 1026.78 1026.86 1026.86 1026.94 1027.02 1027.14 1027.18 1027.22 1027.22 1027.22 1027.26 1027.30 1027.30 1027.30 1027.38 1027.38 1027.38 1027.30 1027.14 1026.98 1026.86 1026.86 1026.78 1026.74 1026.70 1026.74 1026.86 1026.94 1026.98 1026.98 1026.94 1026.94 1026.90 1026.90 1026.86 1026.86 1026.82 1026.82 1026.82 1026.78 1026.74 1026.74 1026.74 1026.74
Wind_Speed
7 7 6 5 5 5 4 4 4 4 4 4 4 4 3 4 4 3 3 3 3 3 3 3 2 2 2 2 3 3 4 4 4 5 5 5 5 4 4 4 4 4 5 5 4 4 4 4 3 3 3 3 3 3 3 3 4 4 4 4 4 4 4 4 5 5 5 4 4
8 7 7 7 6 5 4 4 4 4 4 4 4 4 4 4 4 4 3 3 3 3 3 3 2 2 2 3 3 4 4 4 5 5 5 5 4 4 4 4 4 4 5 5 4 4 4 4 3 3 3 3 3 3 4 4 4 4 5 5 4 3 3 3 4 4 5 4 5
7 7 7 7 6 6 5 4 4 4 4 3 3 3 3 4 4 4 4 3 3 3 3 3 2 2 3 3 3 4 4 4 4 4 4 4 4 4 4 4 5 5 5 5 4 4 4 4 3 3 3 3 3 3 4 4 4 4 4 4 3 3 3 3 4 5 5 5 6
7 7 7 7 8 7 6 5 5 5 4 4 3 3 3 3 4 4 3 3 3 3 3 3 2 2 3 3 4 4 4 4 4 4 4 4 4 4 4 5 5 5 5 5 5 4 4 4 3 3 3 3 3 4 5 5 5 4 4 4 3 3 3 4 5 5 5 6 6
6 6 6 7 7 7 6 6 6 5 4 4 3 3 3 3 3 3 3 3 3 3 3 3 3 3 3 3 4 4 4 4 4 4 4 4 4 4 4 5 5 5 5 5 5 5 4 4 3 3 4 5 5 5 5 5 5 4 4 3 3 4 5 5 5 5 5 5 5
6 6 6 6 7 6 6 5 6 5 4 4 4 4 3 3 3 3 4 3 3 3 2 3 3 3 3 4 5 5 4 4 4 4 4 4 4 4 5 5 5 5 5 5 5 4 4 4 3 3 4 4 5 5 5 5 5 4 4 4 4 5 6 6 5 5 5 5 5
7 7 6 6 6 6 6 5 5 5 4 4 5 5 4 4 4 4 4 3 3 2 2 3 3 3 4 4 5 4 4 4 4 4 4 3 4 4 4 5 5 5 5 5 4 4 3 3 3 3 3 3 4 5 5 5 4 4 5 5 5 5 5 5 4 4 5 6 6
7 7 6 6 6 7 6 6 5 5 4 4 5 6 5 5 5 4 4 3 3 2 2 2 3 3 4 4 4 4 4 4 4 3 3 3 4 4 4 5 5 5 5 5 4 3 3 2 3 3 4 4 4 4 4 4 5 5 5 5 5 4 3 3 3 4 4 5 6
7 6 6 6 6 6 6 6 6 6 6 6 6 5 5 5 4 4 3 3 2 2 2 2 3 3 4 4 4 3 3 3 3 3 3 3 3 4 4 4 5 5 5 4 4 3 2 2 3 3 3 4 4 4 4 4 6 6 6 5 4 4 4 3 3 4 4 4 6
7 6 6 6 6 6 6 6 6 6 6 6 5 5 4 4 4 3 3 2 2 2 2 2 3 3 4 4 3 3 3 3 3 3 3 3 3 3 3 3 4 4 4 4 3 2 2 2 3 2 2 2 2 2 3 4 6 5 5 4 5 5 5 4 4 5 5 5 7
8 7 6 6 6 6 6 6 6 6 6 6 5 4 4 4 3 2 2 2 2 3 2 2 3 3 3 3 3 2 2 2 2 2 2 2 3 3 3 3 3 3 3 3 2 2 2 2 2 1 1 1 1 1 2 4 5 4 4 4 5 5 5 5 5 6 6 8 9
8 7 7 7 7 7 6 6 5 5 5 5 5 4 4 3 2 2 2 2 3 2 2 2 3 3 3 3 2 2 2 2 2 2 2 2 2 2 2 2 2 2 2 2 2 1 1 1 1 1 1 1 0 1 2 3 3 4 4 4 4 4 4 5 6 6 7 8 8
8 7 7 7 7 7 7 6 5 4 5 5 5 4 4 3 2 2 3 3 3 2 2 2 3 3 3 3 3 2 2 2 3 3 2 2 2 2 2 2 2 2 2 2 1 1 1 1 0 0 0 0 0 0 1 2 2 3 3 3 3 3 2 3 4 5 6 7 7
9 8 7 7 7 7 6 5 5 4 4 5 4 4 3 3 3 3 3 3 2 2 2 3 3 3 3 4 4 4 4 4 4 3 3 2 2 1 1 1 1 1 1 1 1 1 1 1 1 1 1 1 1 1 1 1 1 1 2 2 3 2 2 2 4 5 6 6 6
9 8 7 7 7 6 6 5 4 4 4 4 4 4 3 3 3 4 3 2 2 2 3 3 3 3 4 4 4 4 4 4 4 3 2 1 1 1 1 1 1 1 1 1 2 2 2 2 2 2 2 1 2 2 2 2 2 1 1 2 2 2 2 3 4 4 4 4 4
9 8 7 6 6 6 5 5 4 4 4 4 4 4 3 3 4 4 4 3 2 3 3 3 3 3 3 3 4 5 4 4 3 2 1 1 1 1 1 1 1 1 2 2 2 3 3 3 3 3 2 2 3 3 3 2 2 2 2 2 2 2 2 3 3 3 3 3 3
9 8 7 6 6 6 6 5 4 4 4 5 4 4 4 4 4 4 3 3 3 3 3 3 3 2 2 2 3 4 3 2 1 1 0 0 1 1 1 2 2 2 2 2 3 3 3 3 3 3 3 3 3 3 3 3 2 2 2 2 2 1 2 2 2 2 2 2 3
9 8 7 7 7 7 6 5 5 4 5 5 5 5 4 4 4 4 3 3 3 3 3 4 3 3 3 3 3 2 2 1 1 0 0 0 1 1 1 2 2 2 2 2 3 3 3 3 3 3 3 3 3 3 3 3 3 2 2 2 2 2 2 2 2 2 3 3 4
9 9 8 8 7 7 6 6 5 5 5 5 5 5 5 5 4 4 3 2 3 3 4 4 3 4 4 4 3 2 1 1 0 0 0 0 0 1 1 2 2 2 2 2 2 2 3 3 3 2 2 2 2 2 2 2 2 2 2 2 2 3 3 3 3 3 4 4 4
9 9 8 8 8 7 7 6 5 5 5 5 6 6 6 5 4 3 3 2 3 3 3 3 3 4 4 4 3 2 1 1 1 1 1 1 1 1 1 2 2 2 2 2 2 2 2 2 3 3 3 3 3 3 2 2 1 1 1 2 3 4 4 4 4 4 4 4 5
9 9 8 8 7 7 6 5 5 5 5 6 6 6 6 5 4 4 3 3 3 2 2 3 3 3 3 3 2 2 1 1 1 1 1 1 1 1 2 2 2 2 2 2 2 2 2 2 3 3 3 3 3 3 3 2 2 2 2 2 3 4 4 4 4 4 4 5 5
8 7 7 8 7 6 6 5 6 6 6 6 6 6 6 5 4 4 3 3 2 2 2 2 3 3 2 2 2 1 1 1 1 1 1 1 1 2 2 2 2 2 2 2 2 2 2 2 3 3 3 3 3 3 2 2 2 2 3 3 3 4 4 4 4 4 4 5 5
8 7 7 7 7 7 7 7 6 6 6 6 6 6 5 5 4 4 3 2 2 2 2 1 1 1 1 1 1 1 1 1 1 1 1 1 1 2 2 2 2 3 3 2 2 1 2 2 2 2 2 2 2 2 2 2 2 2 3 3 3 3 4 4 4 4 4 5 5
9 8 7 6 7 7 7 7 6 6 6 6 6 6 5 5 4 3 2 2 2 2 2 1 0 1 1 1 1 1 1 1 1 1 1 1 2 2 2 3 3 2 2 2 3 3 3 1 1 1 1 1 1 2 2 2 2 2 3 3 3 3 4 4 4 4 4 4 4
9 8 8 7 8 7 7 7 6 6 6 6 6 5 5 4 4 3 3 2 2 1 1 0 0 1 1 1 1 1 1 1 1 2 2 3 3 3 3 3 2 2 2 3 5 6 6 4 3 2 1 1 2 2 2 2 3 3 3 3 3 3 3 4 4 4 4 4 4
9 9 8 8 8 7 7 7 7 7 6 6 5 5 5 4 3 3 2 2 1 1 0 0 0 1 1 1 1 1 1 1 1 2 2 3 3 3 3 3 2 2 2 4 6 8 8 8 7 5 3 2 3 3 3 3 4 4 4 3 3 3 3 4 4 4 4 4 4
9 9 9 8 8 7 7 7 7 7 6 5 5 5 5 4 2 2 1 1 1 0 0 0 1 1 1 1 1 2 2 2 2 2 2 3 3 4 3 3 2 2 3 6 8 9 9 10 10 9 7 5 4 4 4 4 5 5 5 5 4 4 4 4 5 5 5 5 5
9 8 9 8 8 8 7 7 7 6 6 6 5 5 4 3 2 1 1 1 0 0 0 1 0 0 1 1 2 2 2 2 2 2 2 3 3 4 3 3 2 3 4 8 9 10 10 10 11 11 10 7 5 5 5 5 5 5 5 5 5 5 5 5 5 5 6 6 6
9 9 9 9 8 8 7 7 7 6 6 6 5 4 3 2 1 1 1 1 0 0 0 0 0 1 1 2 2 2 3 3 2 2 3 4 4 4 4 3 3 4 7 10 10 10 10 10 11 12 12 10 6 4 4 4 4 4 4 4 5 5 5 5 5 6 6 6 6
9 9 9 9 8 8 7 7 7 6 6 5 5 4 3 2 1 1 1 1 0 0 0 0 1 1 2 2 2 3 3 3 3 3 4 5 5 5 4 4 4 5 7 11 10 10 10 10 11 12 12 11 7 5 4 4 4 4 5 5 5 6 6 6 7 7 7 7 7
8 8 8 9 8 8 7 7 7 6 5 4 4 3 2 2 1 1 1 1 1 1 1 1 2 2 2 2 3 3 3 3 3 4 4 5 5 5 5 5 4 5 7 10 10 10 10 10 11 12 12 11 8 5 4 4 5 5 5 5 6 6 7 6 7 8 8 8 7
8 8 8 8 8 8 7 7 7 6 5 4 3 3 2 2 1 1 1 1 1 1 1 2 3 3 3 3 3 3 3 4 4 4 4 5 5 4 5 5 5 5 7 10 10 10 10 10 11 12 12 11 8 5 4 4 4 4 5 5 6 6 6 6 6 6 7 7 6
8 8 8 8 8 8 8 7 7 6 5 4 3 3 2 2 1 1 1 1 1 1 2 2 3 3 3 3 3 3 4 4 4 4 5 4 4 5 5 5 4 5 7 10 9 9 9 10 11 12 12 11 7 5 4 4 4 4 4 5 5 6 6 6 6 6 6 6 6
9 8 8 8 8 8 8 7 6 5 4 3 3 2 2 2 2 1 1 1 1 1 2 2 2 2 2 2 3 3 4 4 4 4 4 4 5 5 5 4 4 6 8 9 9 9 9 10 11 11 11 10 6 5 4 4 4 4 5 5 5 5 5 6 6 6 6 6 6
9 9 9 8 8 8 7 6 5 5 4 3 2 2 2 2 2 2 2 2 2 2 2 2 2 2 2 2 3 3 4 4 4 4 4 4 4 5 5 4 4 6 8 9 9 9 9 10 11 11 10 8 5 4 4 4 4 4 5 5 5 5 5 5 5 5 5 6 6
9 9 9 8 8 7 7 6 5 4 4 3 3 2 2 2 2 2 2 2 2 2 2 2 2 2 3 3 3 4 4 4 4 4 4 4 4 4 4 4 4 6 8 9 9 9 9 10 10 11 9 6 4 3 4 4 3 4 4 4 4 5 5 5 5 5 5 5 6
9 9 9 9 8 7 7 6 5 4 4 3 3 2 2 2 2 1 1 2 3 3 3 2 3 3 4 4 4 3 3 3 4 4 4 4 4 4 4 4 4 5 7 9 9 9 9 10 10 10 8 5 4 3 3 3 3 3 3 4 4 4 4 4 4 4 5 5 6
9 9 9 9 8 7 6 5 5 4 4 3 2 2 2 2 2 1 1 2 3 3 3 3 4 4 4 4 4 3 3 3 4 4 4 3 3 4 4 4 4 4 6 8 9 9 9 9 10 9 8 4 3 3 3 3 3 3 3 3 3 3 3 3 3 3 4 5 8
9 9 9 8 8 7 6 5 5 4 4 3 3 2 2 2 2 2 2 2 3 3 4 4 4 4 4 5 4 4 3 3 4 4 4 3 4 4 4 4 3 4 5 8 9 9 9 9 10 9 8 5 4 3 3 3 3 3 3 3 3 3 3 3 3 3 3 5 9
8 8 8 8 7 7 6 6 5 4 4 4 3 3 2 2 2 2 2 2 3 3 4 5 5 4 4 5 5 5 4 4 4 4 4 4 5 6 6 4 3 4 5 8 9 9 9 10 10 9 8 5 4 3 3 3 3 3 3 3 3 3 3 3 3 3 3 4 6
8 8 8 7 7 7 6 6 5 4 3 4 4 3 2 2 2 2 2 2 3 3 4 5 5 5 5 5 5 5 5 4 4 4 4 4 5 5 5 4 3 4 5 7 9 9 10 10 10 9 8 5 4 3 3 3 3 3 4 4 4 4 4 4 3 3 3 3 4
Wind_Direction
111 111 111 111 110 108 106 104 104 105 109 113 115 116 115 112 108 105 101 99 102 102 101 97 98 94 86 70 71 69 66 61 58 56 56 55 52 50 48 46 44 40 34 27 23 22 23 24 25 25 26 26 29 30 30 28 12 6 5 5 358 354 357 6 358 351 350 3 9
112 112 111 110 108 107 104 101 98 98 101 107 115 119 118 113 110 106 102 99 103 106 104 100 98 93 85 74 73 73 70 66 62 58 55 52 49 48 47 46 44 40 36 29 26 24 24 23 29 32 30 26 30 31 30 25 16 11 8 4 356 354 358 10 2 355 356 12 14
114 113 111 111 111 111 110 107 104 102 103 106 111 113 113 111 110 108 107 108 107 104 100 98 96 91 86 79 73 72 71 70 67 62 56 50 45 43 42 42 40 36 32 27 25 23 22 21 29 34 32 23 31 32 27 20 14 11 9 4 356 353 359 12 17 12 9 14 12
111 112 112 113 114 115 116 117 115 113 112 112 108 105 104 105 107 110 112 110 101 97 97 101 96 92 86 81 72 68 66 67 67 64 59 50 43 40 39 41 38 33 28 23 20 19 18 18 29 34 31 19 29 30 25 15 10 9 8 3 355 355 3 16 21 18 13 8 3
105 107 110 113 115 117 118 118 119 120 119 116 108 103 101 103 107 107 105 98 96 99 105 107 99 90 83 77 70 65 60 58 62 62 58 49 41 36 35 38 36 32 26 21 18 16 17 17 28 36 34 27 32 29 22 10 8 8 8 3 360 7 16 18 17 15 9 360 353
104 102 103 107 110 111 112 114 117 119 118 112 105 101 100 101 102 102 101 102 107 110 108 100 92 82 74 69 65 61 56 52 54 56 55 48 39 34 33 33 33 30 26 20 16 15 17 21 30 36 36 32 32 26 18 10 10 10 11 8 10 14 16 14 8 3 356 347 340
110 107 106 106 108 109 111 113 114 114 111 104 102 103 103 103 102 103 106 110 108 103 95 89 82 77 72 68 64 59 55 50 48 50 50 47 38 34 32 30 29 28 26 20 16 14 17 28 36 37 35 30 29 23 16 8 11 16 18 17 15 13 8 1 355 349 342 335 329
108 109 111 112 112 112 113 115 113 109 105 103 106 109 111 109 107 106 105 99 97 95 91 85 82 80 78 74 69 63 57 51 46 44 44 45 39 35 32 30 27 24 23 20 17 13 13 29 41 42 39 34 31 22 12 6 15 21 24 24 16 4 352 342 339 334 330 326 324
108 109 111 111 111 112 113 113 110 108 107 108 111 113 114 112 109 105 100 96 99 97 93 85 85 82 79 76 73 68 62 57 51 45 43 45 41 37 32 31 28 23 19 18 16 13 12 32 45 45 43 40 34 23 12 12 21 23 23 25 15 357 341 333 334 331 329 332 339
117 116 114 111 110 110 109 107 107 108 110 112 113 112 109 107 104 102 104 109 98 86 80 83 82 78 75 74 73 72 68 64 59 53 47 47 46 43 39 35 32 26 20 13 13 12 18 39 46 41 37 40 36 25 16 22 26 23 19 22 15 3 352 346 348 349 352 358 2
124 123 121 118 116 112 109 106 106 107 110 112 110 107 103 101 100 102 102 93 78 74 76 84 84 80 76 74 74 74 72 69 63 59 55 51 52 49 46 40 38 31 22 10 10 15 27 43 46 35 22 30 42 38 32 33 28 23 18 21 17 12 7 4 8 9 8 7 6
125 124 122 121 120 115 111 109 109 108 108 109 107 104 103 103 107 102 87 71 74 76 80 84 85 83 79 76 77 77 76 73 69 66 61 56 54 52 48 43 40 32 21 6 11 20 32 38 45 29 13 355 38 50 45 39 28 23 20 18 12 7 6 11 17 17 13 6 2
124 123 121 121 119 116 112 111 110 108 107 107 107 108 109 114 116 103 85 75 81 84 85 82 83 82 80 79 80 80 79 76 72 68 63 57 56 52 47 41 36 25 12 357 2 12 16 360 360 360 343 316 221 68 51 35 20 14 11 4 352 344 346 7 21 19 12 2 358
122 122 123 123 121 118 115 113 111 109 107 106 108 111 115 122 115 103 92 86 90 93 90 84 80 79 79 80 81 81 80 81 76 70 62 55 55 51 41 27 20 8 353 335 323 306 285 272 269 267 258 235 223 224 244 328 334 345 349 341 326 321 331 19 25 18 9 359 354
122 123 124 123 121 119 116 115 114 111 107 105 106 108 110 111 106 103 99 93 90 89 88 86 81 78 77 78 84 87 87 87 82 72 57 39 32 26 16 353 345 335 322 305 287 267 251 244 252 258 262 249 236 242 255 277 286 295 307 309 304 313 351 34 29 18 6 356 348
124 125 125 123 120 118 116 116 116 113 110 107 107 104 100 100 102 102 100 95 87 84 85 87 85 79 73 71 87 92 93 91 85 75 55 17 346 338 332 327 318 309 299 286 272 260 252 243 246 254 260 262 258 260 267 277 280 284 287 288 288 314 15 42 29 16 2 350 342
126 127 126 123 120 118 117 116 116 115 114 113 109 103 98 98 100 99 97 97 93 90 90 92 94 90 82 76 90 95 98 97 92 92 95 305 311 311 312 308 297 290 282 276 270 268 267 264 260 256 256 257 262 266 272 279 281 282 284 287 292 328 24 47 28 12 356 345 334
129 128 127 123 122 120 119 118 118 118 117 115 108 103 99 98 98 96 94 96 103 104 105 104 105 105 104 102 104 108 115 123 142 165 181 235 278 290 297 294 289 281 274 271 272 277 281 284 281 275 268 263 266 269 274 280 283 285 289 301 322 354 18 31 16 360 345 336 328
131 130 128 127 125 124 122 121 121 122 119 113 107 103 100 97 97 96 94 93 107 111 113 114 114 112 110 109 113 118 133 151 144 67 33 346 295 294 296 295 295 290 283 279 279 282 287 294 305 310 312 311 309 303 293 288 285 287 299 325 352 3 7 5 356 347 337 329 323
133 132 132 131 129 127 126 125 126 123 116 109 104 101 97 93 93 92 92 93 104 109 113 119 119 118 116 113 109 104 101 112 70 36 12 345 325 313 306 306 308 307 306 306 306 304 306 315 334 346 354 356 353 347 337 320 312 324 350 5 6 2 357 352 344 336 328 320 314
133 133 133 132 130 128 127 127 123 115 107 103 100 97 93 87 83 83 86 90 97 104 113 121 122 121 115 105 90 79 72 71 63 38 353 329 321 312 308 312 319 323 326 328 327 326 330 341 355 4 8 9 3 356 349 337 340 358 13 16 4 356 349 341 333 326 319 311 304
133 133 132 130 128 126 123 120 113 108 103 102 99 95 91 85 81 79 82 87 93 111 132 135 128 120 107 89 73 62 49 39 38 17 334 317 316 315 317 329 340 344 343 341 338 342 349 357 3 7 9 10 360 350 341 333 345 3 9 5 356 347 339 331 325 318 311 305 299
133 132 129 126 123 119 116 112 109 107 104 102 99 97 96 97 94 91 91 103 130 159 176 183 142 114 98 86 79 64 46 24 8 350 335 336 337 338 341 351 360 360 353 345 349 360 7 3 359 357 360 360 346 333 323 317 344 3 5 356 346 339 331 323 318 312 307 303 300
132 130 127 122 117 114 113 112 111 109 105 102 102 106 111 113 112 115 126 156 179 193 200 201 122 75 75 79 78 76 67 43 13 360 360 12 16 10 5 5 7 360 350 343 2 14 21 16 2 352 347 344 329 314 306 305 344 2 2 349 339 332 325 320 315 313 310 308 308
131 128 123 118 115 114 114 115 113 110 107 105 108 113 118 118 127 141 165 192 208 217 220 121 47 40 49 57 62 73 81 77 46 29 23 23 25 25 23 17 7 355 347 354 16 23 28 33 34 33 19 358 340 328 320 324 349 358 356 344 335 330 325 323 322 322 324 322 326
128 125 121 119 117 116 116 115 113 110 108 109 112 116 121 128 144 163 186 211 235 251 272 89 44 37 45 54 59 61 60 61 55 48 41 34 32 31 29 24 6 352 353 12 28 32 34 35 38 41 44 35 16 1 353 351 357 358 355 347 341 338 337 339 341 346 349 350 350
127 124 123 121 118 117 116 114 111 110 110 112 117 123 134 151 162 173 185 219 242 252 188 78 52 46 52 69 64 58 52 46 49 54 56 53 46 41 34 25 4 348 4 30 39 40 39 38 40 43 46 46 33 23 16 11 4 1 358 356 353 352 355 358 1 2 4 6 5
129 127 125 122 119 118 115 112 111 111 115 119 127 139 154 167 166 165 173 209 226 260 38 40 39 50 67 64 59 57 54 50 51 56 60 61 56 49 40 26 360 360 21 42 43 42 40 39 43 46 49 50 41 32 25 19 11 7 4 1 359 1 4 10 11 9 8 7 7
131 129 126 123 122 119 117 114 117 120 125 132 143 154 161 159 151 155 166 180 134 44 29 350 359 46 55 53 53 53 53 51 53 57 60 58 54 47 37 26 7 17 33 44 43 41 39 39 45 49 51 50 45 36 28 22 18 15 13 9 6 4 7 15 17 16 11 8 6
133 130 128 126 124 122 121 121 126 131 137 144 153 157 154 143 148 155 163 157 150 170 198 194 87 64 58 56 56 56 54 51 53 57 59 59 54 46 35 24 12 20 33 42 42 39 38 39 46 51 52 50 46 39 30 26 25 24 23 20 15 13 14 19 20 18 15 11 6
134 132 130 128 126 126 126 128 133 138 144 152 156 153 149 151 165 171 173 170 180 190 176 124 83 71 65 62 63 62 59 55 55 57 60 62 58 49 36 24 11 18 32 41 40 38 37 39 47 51 53 50 47 40 32 29 30 31 30 26 23 22 22 24 21 19 16 13 7
135 133 131 129 128 129 131 133 138 144 151 158 159 158 158 162 166 174 180 180 174 159 113 81 73 67 62 57 60 61 61 60 59 61 63 67 62 53 39 25 11 17 31 40 40 38 38 40 48 52 53 51 48 41 35 35 34 34 33 30 27 26 26 27 23 18 14 11 6
136 134 132 130 131 132 135 138 144 150 158 163 165 162 156 149 153 163 175 180 157 125 100 85 79 75 71 68 67 66 65 65 66 66 67 69 66 57 44 28 11 20 32 41 40 39 40 42 50 53 54 51 48 42 35 37 36 34 32 29 26 26 26 26 21 15 9 3 360
137 135 133 133 133 135 138 144 150 156 162 167 164 154 143 141 150 158 163 163 138 117 104 97 96 95 91 87 84 79 73 70 69 68 68 69 67 60 48 28 10 21 32 42 40 40 41 45 52 55 56 53 49 43 37 38 36 33 30 26 23 22 22 20 15 9 2 357 352
140 138 136 135 135 137 142 150 156 160 161 161 152 142 139 152 159 161 159 150 125 106 94 90 95 93 89 82 83 82 78 74 71 70 70 71 68 61 50 29 8 16 28 42 41 41 42 45 53 57 59 57 52 45 41 39 36 32 28 24 20 17 15 13 8 3 356 350 344
142 140 138 136 138 143 149 156 158 158 155 151 145 145 152 165 171 171 161 138 113 98 89 83 81 82 79 76 75 76 78 79 76 74 73 74 73 66 53 31 9 12 23 38 41 41 41 45 53 58 61 60 54 47 44 42 37 32 27 23 16 12 9 6 1 356 352 346 339
141 140 139 140 144 149 154 156 154 152 150 149 152 159 164 165 169 169 155 125 105 98 93 88 86 88 89 89 85 82 81 83 82 80 78 79 79 73 60 38 13 6 14 32 40 40 40 43 51 58 63 63 55 48 45 41 38 33 27 21 13 5 1 357 354 352 350 345 341
141 140 141 143 148 152 153 151 149 149 152 154 161 169 171 162 156 156 147 127 113 108 104 98 97 99 102 104 99 92 85 80 82 82 83 83 86 81 70 49 20 4 8 28 38 40 38 40 47 55 63 70 59 51 46 42 37 32 27 19 8 359 354 349 350 350 350 346 344
142 142 143 145 149 150 150 148 150 152 154 157 162 168 170 156 147 146 142 130 120 116 113 108 108 110 112 111 106 97 88 78 77 77 78 80 83 81 75 60 29 8 8 25 36 38 37 37 41 49 60 76 65 56 49 43 36 29 22 14 4 356 349 347 347 349 348 343 342
142 142 143 146 148 148 148 149 153 155 155 154 158 162 163 151 138 130 123 111 109 110 112 113 115 116 116 113 108 101 91 79 72 70 70 69 70 71 70 65 37 14 10 21 33 36 35 33 35 42 53 77 67 58 48 40 32 23 15 8 360 354 349 347 345 343 341 337 338
141 142 143 145 147 147 148 151 154 155 154 153 157 159 156 141 126 116 108 101 102 107 111 114 116 116 114 111 107 100 91 80 69 64 63 62 62 63 63 62 41 19 11 16 27 31 32 30 30 33 40 62 62 56 44 36 24 15 8 360 356 352 348 344 340 336 332 327 325